Preview of NWS' New Version of Forecast
This preview is not operational and should not be used for support decisions.

Regional Weather Roundup (RWR)

Issued by Gray - Portland, ME (GYX)

                            
000
ASUS41 KGYX 181710
RWRGYX
WEATHER ROUNDUP FOR MAINE AND NEW HAMPSHIRE
NATIONAL WEATHER SERVICE GRAY ME
1200 PM EST MON FEB 18 2019

MEZ002-005-006-010-012-015-018-020-021-024-026-027-029-181800-
MAINE
  
CITY           SKY/WX    TMP DP  RH WIND       PRES   REMARKS
PORTLAND       FLURRIES  19  13  77 NE10G25   29.88F WCI   7          
SANFORD        MIX PCPN  19  16  88 N12       29.85F FOG     WCI   7  
BAR HARBOR     LGT SNOW  18  12  79 NE8       29.90F FOG              
WISCASSET      CLOUDY    19  13  77 VRB5      29.89F                  
ROCKLAND       FLURRIES  19  15  84 NE14      29.87F WCI   6          
FRYEBURG       LGT SNOW  19  14  81 VRB3      29.87F                  
LEWISTONAUBURN FLURRIES  16  11  80 N8        29.89S                  
AUGUSTA        LGT SNOW  15   9  76 N12       29.89F WCI   2          
WATERVILLE     LGT SNOW  14   9  80 N8        29.87F                  
BANGOR         LGT SNOW  16   9  74 N8        29.91F                  
GREENVILLE       N/A     13  -6  42 NW6       29.78F                  
MILLINOCKET    CLOUDY    16   1  51 VRB6      29.92F                  
HOULTON        NOT AVBL                                               
PRESQUE ISLE   FAIR      17   1  49 E3        29.91F                  
FRENCHVILLE    FAIR      10  -4  53 NW10      29.86F WCI  -4          
CARIBOU        FAIR      13  -1  54 N7        29.88F                  
$$

NHZ002-005-008-009-011-012-014-181800-
NEW HAMPSHIRE
  
CITY           SKY/WX    TMP DP  RH WIND       PRES   REMARKS
PORTSMOUTH     LGTSLEET  23  20  88 N10       29.82F FOG     WCI  12  
ROCHESTER      LGT SNOW  21  18  86 N8        29.84S FOG              
NASHUA         LGT SNOW  28  25  88 N7        29.84R FOG              
MANCHESTER     LGT SNOW  26  21  81 NE8       29.83S                  
CONCORD        LGT SNOW  23  20  88 N6        29.84S FOG              
LACONIA        LGT SNOW  19  15  84 E6        29.85S FOG              
PLYMOUTH       LGT SNOW  23  18  82 CALM      29.85F VSB 3/4          
BERLIN         SNOW      16  11  80 CALM      29.83F VSB 1/2          
WHITEFIELD     LGT SNOW  20  14  77 N3        29.82F VSB 3/4          
JAFFREY        LGT SNOW  26  24  92 VRB3      29.77F FOG              
KEENE          LGT SNOW  27  23  85 N7        29.82S FOG              
LEBANON        SNOW      21  14  74 N6        29.85F VSB 1/2          
MT WASHINGTON  NOT AVBL                                               
$$

VTZ005-007-008-181800-
VERMONT
  
CITY           SKY/WX    TMP DP  RH WIND       PRES   REMARKS
ST JOHNSBURY     N/A     17  13  84 MISG      29.85F                  
MONTPELIER     LGT SNOW  16  14  92 NW5       29.87S FOG              
BURLINGTON     LGT SNOW  12   7  80 NW13      29.96R VSB 1   WCI  -3  
$$

MAZ007-012-024-CTZ003-RIZ002-NYZ038-NYZ072-181800-
SOUTHERN NEW ENGLAND AND NY
  
CITY           SKY/WX    TMP DP  RH WIND       PRES   REMARKS
BOSTON         LGT SNOW  31  27  85 N13       29.81F FOG              
WORCESTER      LGT SNOW  27  25  92 NE3       29.76S FOG              
NANTUCKET      CLOUDY    37  36  96 NE7       29.73F FOG              
PROVIDENCE     LGT SNOW  32  30  92 N8        29.80F VSB 1            
HARTFORD       LGT SNOW  31  27  85 NW6       29.82S VSB 1            
ALBANY         LGT SNOW  21  14  74 N6        29.88S VSB 1            
NEW YORK CITY  PTSUNNY   39  34  82 W13G22    29.84R                  
$$

ANZ081-ANZ082-ANZ150-NHZ014-MEZ023>029-181800-
COASTAL MARINE OBSERVATIONS
  
STATION/POSITION TIME  TEMP    WIND        PRES    WAVE
                       AIR SEA DIR/SP/G            HT/PER
                 (UTC) (F)     (DEG/KT/KT) (MB)    (FT/S)
MOUNT DESERT ROC 1700   27      30/ 22/ 24 1010.5F
MATINICUS ROCK   1600   25      40/ 24/ 27 1010.8F
ISLE OF SHOALS   1600   24      20/ 24/ 26 1009.8F
JEFFREYS LEDGE   1608      40                N/A     3/ 4
CASHES LEDGE BUO 1650   31 39              1009.4F   4/ 4
$$

.............KEY..............
   WCI - WIND CHILL
   TC  - TEMPERATURE IN CELSIUS
   VSB - VISIBILITY IN MILES
   HX  - HEAT INDEX
   FAIR- INDICATES FEW OR NO CLOUDS BELOW 12,000 FT, WITH NO 
         SIGNIFICANT WEATHER AND/OR OBSTRUCTIONS TO VISIBILITY.